Location: Unspecified
(33.6682°S, 0.0000°E)
Time: 04:34:04
(UTC+00:00)

S-56A Canister/Altair - Pass Details

Date: 29 June 2019
Orbit: 633 x 2499 km, 38.9° (Epoch: 13 October)

Event Time Altitude Azimuth Distance (km) Brightness Sun altitude
Exits shadow 03:13:07 39° 120° (ESE) 2,169 9.9 -47.4°
Drops below altitude 10° 03:20:01 10° 106° (ESE) 4,263 11.8 -46.0°
Sets 03:24:09 0° 103° (ESE) 5,533 12.6 -45.1°
